User: anonymous   Login
Location: Unspecified
(51.6250°N, 0.8230°E)
Time: 10:22:38
(UTC+01:00)
Language:

CZ-3 Stage 3 - Orbit

View from above orbital plane
View from above orbital plane
View from above satellite
View from above satellite

Ground track
Ground track

The orbit data is extracted from the following two-line orbital elements,

1 14900U 84035B   20266.13879880 -.00000002 +00000-0 +26479-3 0  9998
2 14900 031.1436 354.8665 7161467 278.6010 013.0966 02.33893839242682
Epoch (UTC): 22 September 2020 03:19:52
Eccentricity: 0.7161467
inclination: 31.1436°
perigee height: 426 km
apogee height: 34763 km
right ascension of ascending node: 354.8665°
argument of perigee: 278.6010°
revolutions per day: 2.33893839
mean anomaly at epoch: 13.0966°
orbit number at epoch: 24268

The dashed part of the orbit path shows where the satellite is in the earth's shadow,  

DLR